Location: Bagnolo San Vito
(45.0833°N, 10.8833°E)
Time: 00:19:56
(UTC+00:00)

Meteor 2-4 Rocket - Pass Details

Date: 03 March 2021
Orbit: 799 x 908 km, 81.2° (Epoch: 17 April)

Event Time Altitude Azimuth Distance (km) Brightness Sun altitude
Rises 18:46:17 0° 347° (NNW) 3,491 7.2 -18.3°
Reaches altitude 10° 18:48:44 10° 345° (NNW) 2,561 6.5 -18.8°
Maximum altitude 18:54:33 71° 263° (W) 954 4.1 -19.8°
Drops below altitude 10° 19:00:25 10° 181° (S) 2,583 6.1 -20.8°
Sets 19:02:53 0° 179° (S) 3,522 6.8 -21.2°
